| time (UTC) | temp F | wind direction | speed knots | gust knots | rain 1hr in | rain 24hr in | rain mn in | humidity % | barometer mb |
| 20260506181536 | 51 | 186 | 0.9 | 3.5 | 0.00 | 0.00 | 0.00 | 88 | 1012.4 |
| 20260506180025 | 51 | 200 | 0.9 | 3.5 | 0.00 | 0.00 | 0.00 | 87 | 1012.3 |
| 20260506174523 | 51 | 219 | 0.9 | 3.5 | 0.00 | 0.00 | 0.00 | 87 | 1012.3 |
| 20260506173038 | 51 | 205 | 0.0 | 7.0 | 0.00 | 0.00 | 0.00 | 87 | 1012.1 |
| 20260506171521 | 52 | 232 | 2.6 | 9.6 | 0.00 | 0.00 | 0.00 | 86 | 1012.0 |
| 20260506170020 | 52 | 214 | 2.6 | 7.0 | 0.00 | 0.00 | 0.00 | 86 | 1011.8 |
| 20260506164521 | 52 | 236 | 0.0 | 5.2 | 0.00 | 0.00 | 0.00 | 87 | 1011.8 |
| 20260506163027 | 52 | 227 | 2.6 | 8.7 | 0.00 | 0.00 | 0.00 | 87 | 1012.0 |
| 20260506161520 | 52 | 221 | 3.5 | 10.4 | 0.00 | 0.00 | 0.00 | 86 | 1011.9 |
| 20260506160018 | 52 | 234 | 3.5 | 11.3 | 0.00 | 0.00 | 0.00 | 86 | 1011.8 |
| 20260506154519 | 52 | 229 | 3.5 | 12.2 | 0.00 | 0.00 | 0.00 | 85 | 1011.9 |
| 20260506153023 | 52 | 199 | 7.0 | 15.6 | 0.00 | 0.00 | 0.00 | 85 | 1011.9 |
| 20260506151518 | 52 | 202 | 5.2 | 13.0 | 0.00 | 0.00 | 0.00 | 86 | 1011.9 |
| 20260506150018 | 52 | 216 | 5.2 | 11.3 | 0.00 | 0.00 | 0.00 | 88 | 1011.9 |
| 20260506144516 | 51 | 230 | 8.7 | 13.0 | 0.00 | 0.00 | 0.00 | 88 | 1011.8 |
| 20260506143023 | 52 | 192 | 8.7 | 13.9 | 0.00 | 0.00 | 0.00 | 89 | 1011.7 |
| 20260506141515 | 51 | 234 | 8.7 | 14.8 | 0.00 | 0.00 | 0.00 | 89 | 1011.6 |
| 20260506140019 | 51 | 207 | 7.8 | 13.0 | 0.00 | 0.00 | 0.00 | 89 | 1011.4 |
| 20260506134516 | 51 | 230 | 2.6 | 11.3 | 0.00 | 0.00 | 0.00 | 91 | 1011.5 |
| 20260506133016 | 51 | 244 | 3.5 | 12.2 | 0.00 | 0.00 | 0.00 | 92 | 1011.4 |
| 20260506131514 | 50 | 233 | 7.0 | 16.5 | 0.00 | 0.00 | 0.00 | 92 | 1011.4 |
| 20260506130012 | 50 | 216 | 5.2 | 16.5 | 0.00 | 0.00 | 0.00 | 93 | 1011.4 |
| 20260506124513 | 50 | 238 | 6.1 | 12.2 | 0.00 | 0.00 | 0.00 | 93 | 1011.5 |
| 20260506123012 | 49 | 209 | 9.6 | 14.8 | 0.00 | 0.00 | 0.00 | 93 | 1011.3 |
| 20260506121511 | 50 | 254 | 7.8 | 17.4 | 0.00 | 0.00 | 0.00 | 94 | 1011.1 |
| 20260506120010 | 50 | 215 | 9.6 | 16.5 | 0.00 | 0.00 | 0.00 | 94 | 1010.9 |
| 20260506114510 | 50 | 268 | 9.6 | 20.0 | 0.00 | 0.00 | 0.00 | 94 | 1010.8 |
| 20260506113010 | 51 | 209 | 9.6 | 26.1 | 0.00 | 0.00 | 0.00 | 94 | 1010.4 |
| 20260506111505 | 52 | 232 | 16.5 | 25.2 | 0.00 | 0.00 | 0.00 | 92 | 1009.9 |
| 20260506110003 | 53 | 238 | 12.2 | 15.6 | 0.00 | 0.00 | 0.00 | 91 | 1009.8 |
| 20260506104504 | 54 | 223 | 10.4 | 15.6 | 0.00 | 0.00 | 0.00 | 90 | 1009.6 |
| 20260506103108 | 54 | 244 | 6.1 | 9.6 | 0.00 | 0.00 | 0.00 | 91 | 1009.6 |
| 20260506101558 | 54 | 249 | 5.2 | 7.8 | 0.00 | 0.00 | 0.00 | 91 | 1009.6 |
| 20260506100058 | 54 | 248 | 4.3 | 7.0 | 0.00 | 0.00 | 0.00 | 91 | 1009.4 |
| 20260506094558 | 54 | 259 | 2.6 | 6.1 | 0.00 | 0.00 | 0.00 | 92 | 1009.4 |
| 20260506093056 | 54 | 267 | 0.0 | 1.7 | 0.00 | 0.00 | 0.00 | 92 | 1009.4 |
| 20260506091556 | 53 | 266 | 0.9 | 2.6 | 0.00 | 0.00 | 0.00 | 92 | 1009.5 |
| 20260506090050 | 53 | 290 | 0.9 | 4.3 | 0.00 | 0.00 | 0.00 | 91 | 1009.1 |
| 20260506084550 | 54 | 217 | 0.0 | 1.7 | 0.00 | 0.00 | 0.00 | 90 | 1009.2 |
| 20260506083050 | 54 | 117 | 0.0 | 0.0 | 0.00 | 0.00 | 0.00 | 89 | 1009.1 |
| 20260506081556 | 54 | 111 | 0.0 | 0.0 | 0.00 | 0.00 | 0.00 | 90 | 1009.0 |
| 20260506073048 | 53 | 110 | 0.0 | 0.0 | 0.00 | 0.00 | 0.00 | 92 | 1009.0 |
| 20260506071545 | 53 | 113 | 0.0 | 0.0 | 0.00 | 0.00 | 0.00 | 93 | 1009.1 |
| 20260506061539 | 50 | 113 | 0.0 | 0.0 | 0.00 | 0.00 | 0.00 | 96 | 1009.1 |
| 20260506044531 | 49 | 111 | 0.0 | 3.5 | 0.00 | 0.00 | 0.00 | 95 | 1009.2 |
| 20260506043019 | 50 | 111 | 2.6 | 6.1 | 0.00 | 0.00 | 0.00 | 95 | 1009.2 |
| 20260506041515 | 50 | 100 | 1.7 | 4.3 | 0.00 | 0.00 | 0.00 | 94 | 1009.4 |
| 20260506040025 | 50 | 61 | 0.9 | 2.6 | 0.00 | 0.00 | 0.00 | 95 | 1009.3 |
| 20260506034513 | 50 | 341 | 0.0 | 2.6 | 0.00 | 0.00 | 0.00 | 95 | 1009.5 |
| 20260506033014 | 50 | 329 | 2.6 | 4.3 | 0.00 | 0.00 | 0.00 | 94 | 1009.7 |
| 20260506031510 | 51 | 308 | 0.9 | 3.5 | 0.00 | 0.00 | 0.00 | 92 | 1009.8 |
| 20260506030007 | 52 | 307 | 1.7 | 3.5 | 0.00 | 0.00 | 0.00 | 90 | 1009.9 |
| 20260506024516 | 53 | 193 | 0.0 | 4.3 | 0.00 | 0.00 | 0.00 | 89 | 1010.2 |
| 20260506023004 | 53 | 194 | 1.7 | 6.1 | 0.00 | 0.00 | 0.00 | 89 | 1010.4 |
| 20260506021504 | 52 | 170 | 1.7 | 5.2 | 0.00 | 0.00 | 0.00 | 90 | 1010.4 |
| 20260506020002 | 53 | 169 | 0.0 | 2.6 | 0.00 | 0.00 | 0.00 | 90 | 1010.4 |
| 20260506014559 | 53 | 184 | 0.0 | 3.5 | 0.00 | 0.00 | 0.00 | 90 | 1010.7 |
| 20260506013057 | 52 | 200 | 0.0 | 1.7 | 0.00 | 0.00 | 0.00 | 92 | 1011.0 |
| 20260506011556 | 52 | 196 | 0.0 | 0.0 | 0.00 | 0.00 | 0.00 | 93 | 1011.2 |
| 20260506010057 | 52 | 196 | 0.0 | 0.0 | 0.00 | 0.00 | 0.00 | 92 | 1011.3 |
| 20260506004554 | 52 | 196 | 0.0 | 0.0 | 0.00 | 0.00 | 0.00 | 92 | 1011.2 |
| 20260506003057 | 52 | 196 | 0.9 | 5.2 | 0.00 | 0.00 | 0.00 | 92 | 1011.5 |
| 20260506001604 | 52 | 160 | 1.7 | 5.2 | 0.00 | 0.00 | 0.00 | 92 | 1011.7 |
| 20260506000048 | 52 | 234 | 2.6 | 5.2 | 0.00 | 0.00 | 0.00 | 93 | 1011.6 |
| 20260505234607 | 52 | 167 | 0.0 | 0.0 | 0.00 | 0.00 | 0.00 | 94 | 1011.7 |
| 20260505233048 | 52 | 159 | 0.0 | 2.6 | 0.00 | 0.00 | 0.00 | 95 | 1011.8 |
| 20260505231543 | 51 | 143 | 0.0 | 2.6 | 0.00 | 0.00 | 0.00 | 95 | 1012.1 |
| 20260505230046 | 51 | 125 | 2.6 | 4.3 | 0.00 | 0.00 | 0.00 | 95 | 1012.2 |
| 20260505224541 | 51 | 130 | 0.0 | 2.6 | 0.00 | 0.00 | 0.00 | 95 | 1012.2 |
| 20260505223049 | 51 | 113 | 0.0 | 0.0 | 0.00 | 0.00 | 0.00 | 95 | 1012.2 |
| 20260505221540 | 51 | 113 | 0.0 | 0.0 | 0.00 | 0.00 | 0.00 | 95 | 1012.2 |
| 20260505220040 | 51 | 113 | 2.6 | 4.3 | 0.00 | 0.00 | 0.00 | 94 | 1012.2 |
| 20260505214551 | 52 | 115 | 1.7 | 3.5 | 0.00 | 0.00 | 0.00 | 94 | 1012.3 |
| 20260505213037 | 52 | 123 | 1.7 | 4.3 | 0.00 | 0.00 | 0.00 | 94 | 1012.3 |
| 20260505211542 | 52 | 129 | 2.6 | 6.1 | 0.00 | 0.00 | 0.00 | 94 | 1012.5 |
| 20260505210036 | 52 | 111 | 3.5 | 6.1 | 0.00 | 0.00 | 0.00 | 93 | 1012.4 |
| 20260505204537 | 53 | 117 | 0.9 | 3.5 | 0.00 | 0.00 | 0.00 | 93 | 1012.6 |
| 20260505203049 | 53 | 115 | 2.6 | 6.1 | 0.00 | 0.00 | 0.00 | 92 | 1012.4 |
| 20260505201535 | 54 | 117 | 3.5 | 7.0 | 0.00 | 0.00 | 0.00 | 93 | 1012.3 |
| 20260505200034 | 54 | 121 | 2.6 | 6.1 | 0.00 | 0.00 | 0.00 | 92 | 1012.1 |
| 20260505194535 | 54 | 120 | 1.7 | 3.5 | 0.00 | 0.00 | 0.00 | 91 | 1012.1 |
| 20260505193034 | 55 | 119 | 3.5 | 7.0 | 0.00 | 0.00 | 0.00 | 91 | 1011.9 |
| 20260505191538 | 55 | 131 | 2.6 | 6.1 | 0.00 | 0.00 | 0.00 | 90 | 1011.7 |
| 20260505190035 | 56 | 126 | 2.6 | 4.3 | 0.00 | 0.00 | 0.00 | 87 | 1011.5 |
| 20260505184544 | 57 | 121 | 1.7 | 5.2 | 0.00 | 0.00 | 0.00 | 85 | 1011.4 |
| 20260505183039 | 58 | 193 | 2.6 | 7.0 | 0.00 | 0.00 | 0.00 | 84 | 1011.4 |